COMPANY RECORD · MIAMI-DADE COUNTY, FL
Ocean Coast Electrical LLC — permit history in Miami-Dade County, FL
Ocean Coast Electrical LLC appears on 89 Miami-Dade County permit records from 2024 through 2026, all of them electrical.
Permit categories
| Category | Permits | Share |
|---|---|---|
| Electrical | 89 | 100% |
Activity by year
| Year | Permits issued |
|---|---|
| 2024 | 1 |
| 2025 | 54 |
| 2026 | 34 |
Busiest year on record: 2025, with 54 permits. One project can account for several filings, so read this as filing activity rather than workload.
Where they worked
| Address in source | Most recent permit |
|---|---|
| 4383 SW 75 AVE | 2026-08-26 |
| 10061 W FERN ST | 2026-08-10 |
| 12830 NE 6 AVE | 2026-07-20 |
| 10001 W FERN ST | 2026-07-14 |
| 14145 SW 270 ST | 2026-06-16 |
| 14195 SW 270 ST | 2026-06-05 |
| 14055 SW 270 ST | 2026-05-08 |
| 10951 SW 84 ST | 2026-03-12 |
| 4321 SW 75 AVE | 2026-02-10 |
| 4201 SW 75 AVE | 2026-02-06 |
| 4351 SW 75 AVE | 2026-02-06 |
| 11285 SW 211 ST | 2026-01-28 |
| 5115 NW 29 AVE | 2026-01-07 |
| 15782 SW 91 ST | 2026-01-07 |
21 distinct addresses on record; the 14 most recent are shown. Declared value on record runs from $150 to $10,000,000, median $387,590. Addresses appear as the authority published them. A permit is a filing at an address, not a completed job there.
Permits on record
89 permits; open the 50 most recent
| Permit | Issued | Category | Address in source | Scope as filed | Declared value |
|---|---|---|---|---|---|
| 2026067740 | 2026-08-26 | Electrical | 4383 SW 75 AVE | TEMP POWER 1000AMPS | $65,000 |
| 2026063850 | 2026-08-10 | Electrical | 10061 W FERN ST | FIRE ALARMABLE HOUS | $10,000,000 |
| 2026059439 | 2026-07-20 | Electrical | 12830 NE 6 AVE | NEW FA SYSTEM | $157,000 |
| 2026058125 | 2026-07-14 | Electrical | 10001 W FERN ST | TEMP FOR TEST | $50,000 |
| 2026056957 | 2026-07-09 | Electrical | 10061 W FERN ST | NEW AFFORDABLE HOUS | $10,000,000 |
| 2026052391 | 2026-06-16 | Electrical | 14145 SW 270 ST | NEW HOUSING BLDG#2 | $1,500,000 |
| 2026050216 | 2026-06-05 | Electrical | 14195 SW 270 ST | TEMP FOR TESTLDG | $3,000,000 |
| 2026047451 | 2026-05-22 | Electrical | 10061 W FERN ST | NEW AFFORDABLE HOUS | $10,000,000 |
| 2026044666 | 2026-05-11 | Electrical | 10061 W FERN ST | LOW VOLTAGEBLE HOUS | $10,000,000 |
| 2026044667 | 2026-05-11 | Electrical | 10061 W FERN ST | ELEC AFFDBLE HOUSUS | $10,000,000 |
| 2026044485 | 2026-05-08 | Electrical | 14055 SW 270 ST | NEW GUARD HOUSE | $50,000 |
| 2026043005 | 2026-05-01 | Electrical | 10001 W FERN ST | AFFORD HOUSING BLDG | $3,500,000 |
| 2026042067 | 2026-04-28 | Electrical | 14195 SW 270 ST | LIGHT POLES BLDG | $3,000,000 |
| 2026042066 | 2026-04-28 | Electrical | 14145 SW 270 ST | NEW HOUSING BLDG#2 | $1,500,000 |
| 2026041052 | 2026-04-23 | Electrical | 10001 W FERN ST | GUARD HOUSE | $50,000 |
| 2026041051 | 2026-04-23 | Electrical | 10001 W FERN ST | TEMP FOR TESTSSS | $3,500,000 |
| 2026036228 | 2026-04-01 | Electrical | 14145 SW 270 ST | NEW POLES | $1,500,000 |
| 2026031811 | 2026-03-12 | Electrical | 10951 SW 84 ST | ELEC. AS PER PLANS | $10,000 |
| 2026028545 | 2026-02-26 | Electrical | 10951 SW 84 ST | PERIMETER FENCE | $50,000 |
| 2026025993 | 2026-02-13 | Electrical | 14055 SW 270 ST | ELEC. AS PER PLANS | $50,000 |
| 2026025267 | 2026-02-10 | Electrical | 4321 SW 75 AVE | REMOVE ELEC. SERVIC | $23,000 |
| 2026025268 | 2026-02-10 | Electrical | 4383 SW 75 AVE | REMOVE ELEC. SERVIC | $25,000 |
| 2026025266 | 2026-02-10 | Electrical | 4321 SW 75 AVE | REMOVE ELEC. SERVIC | $20,000 |
| 2026024712 | 2026-02-06 | Electrical | 4201 SW 75 AVE | REMOVE ELEC. SERVIC | $25,000 |
| 2026024713 | 2026-02-06 | Electrical | 4201 SW 75 AVE | REMOVE ELEC. SERVIC | $25,000 |
| 2026024714 | 2026-02-06 | Electrical | 4201 SW 75 AVE | REMOVE ELEC. SERVIC | $25,000 |
| 2026024715 | 2026-02-06 | Electrical | 4351 SW 75 AVE | REMOVE ELEC. SERVIC | $30,000 |
| 2026022699 | 2026-01-28 | Electrical | 11285 SW 211 ST | POWER TO FIRE PANEL | $2,500 |
| 2026019831 | 2026-01-13 | Electrical | 14145 SW 270 ST | NEW HOUSING BLDG#2 | $1,500,000 |
| 2026018782 | 2026-01-07 | Electrical | 5115 NW 29 AVE | 2 WAY COMM SYSTEMG | $2,000,000 |
| 2026018635 | 2026-01-07 | Electrical | 15782 SW 91 ST | LEGALIZE TERRACE | $7,000 |
| 2026018511 | 2026-01-06 | Electrical | 10001 W FERN ST | AFFORD HOUSING BLDG | $3,500,000 |
| 2026018198 | 2026-01-05 | Electrical | 14195 SW 270 ST | NEW HOUSING BLDG | $3,000,000 |
| 2026018211 | 2026-01-05 | Electrical | 14145 SW 270 ST | BLDG #2 FIRE ALARM | $3,000,000 |
| 2026016677 | 2025-12-22 | Electrical | 14195 SW 270 ST | FIRE ALARM | $3,000,000 |
| 2026016225 | 2025-12-18 | Electrical | 5115 NW 29 AVE | LIGHT POSTS/BOLLARD | $2,000,000 |
| 2026015677 | 2025-12-16 | Electrical | 10001 W FERN ST | LIGHTING POLE | $3,500,000 |
| 2026015217 | 2025-12-15 | Electrical | 10060 W EVERGREEN ST | DEMO BLDG 09 | $10,000 |
| 2026014821 | 2025-12-12 | Electrical | 3165 NW 77 ST | FIRE ALARMG GARAGE | $200,000 |
| 2026014292 | 2025-12-10 | Electrical | 3165 NW 77 ST | LIGHT POSTS | $200,000 |
| 2026013170 | 2025-12-04 | Electrical | 10981 SW 84 ST | APARTMENTS BLDG A"" | $1,044,050 |
| 2026013169 | 2025-12-04 | Electrical | 10901 SW 84 ST | APARTMENTS BLDG B"" | $1,044,050 |
| 2026005330 | 2025-10-24 | Electrical | 15782 SW 91 ST | ELEC GATE DEMO | $150 |
| 2026004394 | 2025-10-21 | Electrical | 10981 SW 84 ST | LIGHT POSTS | $1,044,050 |
| 2026003795 | 2025-10-17 | Electrical | 10001 W FERN ST | COMMUNICATIONG BLDG | $3,500,000 |
| 2026002439 | 2025-10-10 | Electrical | 10901 SW 84 ST | LIGHT POSTS | $1,044,050 |
| 2025070338 | 2025-09-08 | Electrical | 5115 NW 29 AVE | APARTMENT BUILDING | $2,000,000 |
| 2025066618 | 2025-08-20 | Electrical | 10951 SW 84 ST | ELECTRICAL WORK//// | $10,000 |
| 2025066579 | 2025-08-20 | Electrical | 3165 NW 77 ST | ELEC FIXTURESARAGE | $200,000 |
| 2025063719 | 2025-08-07 | Electrical | 10951 SW 84 ST | ENTRANCE GATE ELEC | $10,000 |
Fields appear as the issuing authority published them, including spelling and blanks. Scope text is the applicant's description of intended work, not an inspection finding.
Source and limits
Public Miami-Dade County permit records through 2026, counted by distinct permit number. This is a historical filing record: it cannot show current backlog, pricing, crew availability, licensing or insurance, and a quiet period may only mean work was filed elsewhere. Confirm anything commercial with the company and with the issuing authority before acting. How we build these records, and what we withhold →
